sat.trackr.live / text

‹ back to catalog

STARLINK-33898

NORAD 64002 · 2025-101J

PAYLOAD ACTIVE UNKNOWN

§ Identity

Operator
Country
US
Launch date
2025-05-14
Launch site
AFETR
Launch vehicle
Mass (kg)
RCS (m²)

Purposes: comms

External: N2YO · Heavens-Above · Gunter

§ Orbital elements

Epoch: 2026-09-18T12:42:18.819072Z

Period
94.27 min
Inclination
43.0000°
Eccentricity
0.0001173
Mean motion
15.27593063 rev/d
Perigee alt
482.2 km
Apogee alt
483.8 km
Semi-major
6,861.1 km
B*
7.0733e-5
RAAN
349.2489°
Arg perigee
262.7652°
Mean anomaly
97.3067°
Rev number
7,654

§ Raw data

STARLINK-338981 64002U 25101J   26261.52938448  .00001686  00000+0  70733-4 0  99952 64002  43.0000 349.2489 0001173 262.7652  97.3067 15.27593063 76547

JSON: /api/v1/satellites/64002 · /tle

For live sub-satellite position, see the globe view (requires WebGL).

§ Visibility from observer

Set your observer location to see the next 7 days of passes ≥ 10°. The values pass through the URL so the page stays shareable.

No JS? Fill the form by hand. The geolocation button needs JavaScript.